Weather Roundup
Issued by NWS Springfield, MO

Home | Current Version | Previous Version | Text Only | Print | Product List | Glossary On
Versions: 1 2 3 4 5 6 7 8 9 10 11 12 13 14 15 16 17 18 19 20 21 22 23 24 25 26 27 28 29 30 31 32 33 34 35 36 37 38 39 40 41 42 43 44 45 46 47 48 49 50
000
NZUS99 KSGF 262007
HRRSGF

HOURLY WEATHER
NATIONAL WEATHER SERVICE SPRINGFIELD MO
300 PM CDT TUE JUL 26 2016

......SGF CWA......

CITY           SKY/WX    TMP DP  RH WIND       PRES   REMARKS
SPRINGFIELD    PTSUNNY   87  73  62 NE14      29.99S HX  94
JOPLIN         MOSUNNY   87  76  69 N9        29.97F HX  97
WEST PLAINS    CLOUDY    77  72  84 S3        30.04S
ROLLA          PTSUNNY   88  74  63 N6        29.99F HX  96
OSAGE BEACH    MOSUNNY   85  73  67 VRB3      30.00F HX  91
BRANSON        RAIN      77  72  83 SE17G29   30.02S

......SURROUNDING SGF CWA......

CITY           SKY/WX    TMP DP  RH WIND       PRES   REMARKS
CHANUTE        MOSUNNY   87  72  60 NE8       29.98F HX  93
PARSONS        PTSUNNY   88  76  67 VRB5      29.98F HX  99
COFFEYVILLE    CLOUDY    88  74  63 NE7       29.95F HX  96
EMPORIA        PTSUNNY   85  70  60 E7        30.02F
GROVE OK       MOSUNNY   90  75  62 NW7       29.96F HX 100
ROGERS AR      SUNNY     90  72  55 SE9       29.98F HX  97
SILOAM SPRINGS CLOUDY    79  66  65 S8        30.00F
HARRISON AR    CLOUDY    80  73  79 S5        30.02S
NEAR YELLVILLE PTSUNNY   75  72  88 N3        29.97R

......KANSAS AND MISSOURI......

CITY           SKY/WX    TMP DP  RH WIND       PRES   REMARKS
KANSAS CTY INT MOSUNNY   87  66  49 NE5       30.03F
DOWNTOWN KC    SUNNY     88  66  48 E7        30.00F HX  90
COLUMBIA       MOSUNNY   86  71  60 NE5       30.01F HX  91
SEDALIA        SUNNY     88  71  57 VRB5      30.02F HX  94
ST JOSEPH      SUNNY     86  67  52 CALM      30.02F
ST LOUIS       MOSUNNY   90  72  55 N7        29.99F HX  97
SPIRIT OF STL  PTSUNNY   88  75  65 NE8       29.97F HX  97
KIRKSVILLE     SUNNY     86  63  45 VRB3      30.04F
WICHITA        PTSUNNY   91  71  51 E6        30.00F HX  97
TOPEKA         SUNNY     87  66  49 SE8       30.01F
OLATHE         SUNNY     87  66  49 E8        30.02F

......TENNESSEE......

CITY           SKY/WX    TMP DP  RH WIND       PRES   REMARKS
MEMPHIS        MOSUNNY   96  71  44 E8        29.94F HX 103
NASHVILLE      PTSUNNY   86  70  58 N10       29.99S THUNDER HX  90

......ARKANSAS.......

CITY           SKY/WX    TMP DP  RH WIND       PRES   REMARKS
FAYETTEVILLE   MOSUNNY   85  75  72 SW3       29.97F HX  93
FT SMITH       LGT RAIN  88  75  65 N13G21    29.92F HX  97
LITTLE ROCK    MOSUNNY   96  71  44 S9        29.92F HX 103

......OKLAHOMA.......

CITY           SKY/WX    TMP DP  RH WIND       PRES   REMARKS
TULSA          CLOUDY    91  73  55 NW7       29.91F HX  99
PONCA CITY     PTSUNNY   91  73  55 N3        29.96F HX  99
MCALESTER      TSTM      80  75  84 S16G26    29.95S VSB 3/4
OKLAHOMA CITY  PTSUNNY   88  71  57 NW5       29.98F HX  94

......IOWA............

CITY           SKY/WX    TMP DP  RH WIND       PRES   REMARKS
DES MOINES     MOSUNNY   86  64  47 SE9       30.04F
QUAD CITIES    SUNNY     86  62  44 E6        30.02F

......ILLINOIS........

CITY           SKY/WX    TMP DP  RH WIND       PRES   REMARKS
QUINCY         SUNNY     86  64  47 N6        30.02F
CHICAGO        PTSUNNY   85  64  49 E12       30.02F



USA.gov is the U.S. government's official web portal to all federal, state and local government web resources and services.